Change the Weather History Date:

Monday, August 26, 2013

  Actual Average Record
Temperature  
Mean Temperature 82 °F -  
Max Temperature 91 °F 87 °F 95 °F (1997)
Min Temperature 73 °F 70 °F 39 °F (2004)
Cooling Degree Days 17    
Growing Degree Days 32 (Base 50)    
Moisture  
Dew Point 73 °F    
Average Humidity 76    
Maximum Humidity 94    
Minimum Humidity 55    
Precipitation  
Precipitation 0.00 in - - ()
Sea Level Pressure  
Sea Level Pressure 29.86 in    
Wind  
Wind Speed 4 mph ()    
Max Wind Speed 12 mph    
Max Gust Speed -    
Visibility 6.1 miles    
Events      
Averages and records for this station are not official NWS values.
T = Trace of Precipitation, MM = Missing Value Source: Averaged Metar Reports

Daily Weather History Graph

Daily Weather History Graph

Search for Another Location

Airport or City:

Trip Planner

Search our weather history database for the weather conditions in past years. The results will help you decide how hot, cold, wet, or windy it might be!

Date:

Astronomy

Aug. 26, 2013 Rise Set
Actual Time 5:34 AM CST 5:58 PM CST
Civil Twilight 5:12 AM CST 6:20 PM CST
Nautical Twilight 4:47 AM CST 6:45 PM CST
Astronomical Twilight 4:21 AM CST 7:10 PM CST
Moon 10:20 PM CST (8/26) 10:25 AM CST (8/26)
Length of Visible Light 13h 07m
Length of Day
12h 24m
Waning Gibbous, 66% of the Moon is Illuminated
Aug 26
Waning Gibbous
Aug 28
Last Quarter
Sep 5
New
Sep 12
First Quarter
Sep 19
Full

Hourly Weather History & Observations

Time (CST) Temp. Heat Index Dew Point Humidity Pressure Visibility Wind Dir Wind Speed Gust Speed Precip Events Conditions
12:00 AM 77.0 °F - 73.4 °F 89% 29.92 in 6.2 mi ESE 4.6 mph - N/A   Partly Cloudy
1:00 AM 78.8 °F - 73.4 °F 83% 29.89 in 6.2 mi East 4.6 mph - N/A   Scattered Clouds
2:00 AM 77.0 °F - 73.4 °F 89% 29.86 in 6.2 mi Calm Calm - N/A   Partly Cloudy
3:00 AM 75.2 °F - 73.4 °F 94% 29.86 in 6.2 mi Calm Calm - N/A   Partly Cloudy
4:00 AM 75.2 °F - 71.6 °F 89% 29.86 in 6.2 mi Calm Calm - N/A   Partly Cloudy
5:00 AM 73.4 °F - 71.6 °F 94% 29.86 in 6.2 mi Calm Calm - N/A   Partly Cloudy
6:00 AM 75.2 °F - 71.6 °F 89% 29.89 in 5.6 mi Calm Calm - N/A   Haze
7:00 AM 77.0 °F - 73.4 °F 89% 29.89 in 5.6 mi Calm Calm - N/A   Partly Cloudy
8:00 AM 82.4 °F 88.2 °F 73.4 °F 74% 29.92 in 5.6 mi ENE 4.6 mph - N/A   Partly Cloudy
9:00 AM 82.4 °F 87.2 °F 71.6 °F 70% 29.92 in 6.2 mi ENE 6.9 mph - N/A   Scattered Clouds
10:00 AM 84.2 °F 89.6 °F 71.6 °F 66% 29.92 in 6.2 mi East 6.9 mph - N/A   Scattered Clouds
11:00 AM 87.8 °F 93.8 °F 71.6 °F 58% 29.89 in 6.2 mi East 9.2 mph - N/A   Scattered Clouds
12:00 PM 87.8 °F 95.6 °F 73.4 °F 62% 29.89 in 6.2 mi East 9.2 mph - N/A   Scattered Clouds
1:00 PM 89.6 °F 98.2 °F 73.4 °F 59% 29.83 in 6.2 mi NE 6.9 mph - N/A   Scattered Clouds
2:00 PM 91.4 °F 100.1 °F 73.4 °F 55% 29.83 in 6.2 mi East 11.5 mph - N/A   Scattered Clouds
3:00 PM 89.6 °F 96.2 °F 71.6 °F 55% 29.80 in 6.2 mi ENE 11.5 mph - N/A   Scattered Clouds
4:00 PM 87.8 °F 93.8 °F 71.6 °F 58% 29.80 in 6.2 mi East 11.5 mph - N/A   Scattered Clouds
5:00 PM 87.8 °F 95.6 °F 73.4 °F 62% 29.80 in 6.2 mi East 6.9 mph - N/A   Scattered Clouds
6:00 PM 84.2 °F 89.6 °F 71.6 °F 66% 29.83 in 6.2 mi East 6.9 mph - N/A   Scattered Clouds
7:00 PM 82.4 °F 88.2 °F 73.4 °F 74% 29.83 in 6.2 mi ESE 4.6 mph - N/A   Scattered Clouds
8:00 PM 80.6 °F 85.4 °F 73.4 °F 79% 29.83 in 6.2 mi Calm Calm - N/A   Scattered Clouds
9:00 PM 78.8 °F - 75.2 °F 89% 29.86 in 6.2 mi SSE 4.6 mph - N/A   Scattered Clouds
10:00 PM 78.8 °F - 73.4 °F 83% 29.86 in 6.2 mi Calm Calm - N/A   Partly Cloudy
11:00 PM 77.0 °F - 73.4 °F 89% 29.86 in 6.2 mi South 4.6 mph - N/A   Partly Cloudy